Regional Weather Roundup
Issued by NWS Charleston, SC

Current Version | Previous Version | Graphics & Text | Print | Product List | Glossary On
Versions: 1 2 3 4 5 6 7 8 9 10 11 12 13 14 15 16 17 18 19 20 21 22 23 24 25 26 27 28 29 30 31 32 33 34 35 36 37 38 39 40 41 42 43 44 45 46 47 48 49 50
000 ASUS42 KCHS 251327 RWRCHS REGIONAL WEATHER ROUNDUP NATIONAL WEATHER SERVICE CHARLESTON SC 900 AM EDT MON MAY 25 2015 NOTE: "FAIR" INDICATES FEW OR NO CLOUDS BELOW 12,000 FEET WITH NO SIGNIFICANT WEATHER AND/OR OBSTRUCTIONS TO VISIBILITY. NOT ALL STATIONS ARE QUALITY CONTROLLED BY THE NATIONAL WEATHER SERVICE. USE DATA WITH CAUTION...ESPECIALLY DEWPOINT OBSERVATIONS. SCZ027-030-031-034>040-042>050-251400- ...SOUTHEAST SOUTH CAROLINA... CITY SKY/WX TMP DP RH WIND PRES REMARKS N CHARLESTON PTSUNNY 76 63 64 E8 30.31R WATERFRONT PAR N/A 76 65 68 E12 30.28R MOUNT PLEASANT PTSUNNY 75 64 69 E6 30.32R JOHNS ISLAND SUNNY 77 66 69 E10 30.31R PINOPOLIS N/A 73 63 68 VRB3 30.23 MONCKS CORNER CLOUDY 73 63 68 E5 30.32S SUMMERVILLE CLOUDY 72 64 78 CALM 30.33R BEAUFORT MCAS CLOUDY 78 67 68 E12 30.29R BEAUFORT ARPT CLOUDY 77 68 73 SE9 30.30R HILTON HEAD IS MOSUNNY 77 70 78 E6 30.30R WALTERBORO CLOUDY 70 63 78 E7 30.32R ALLENDALE CLOUDY 73 63 68 VRB6 30.31R ...SOUTHERN MIDLANDS AND PEE DEE... CITY SKY/WX TMP DP RH WIND PRES REMARKS GEORGETOWN NOT AVBL KINGSTREE NOT AVBL ORANGEBURG PTSUNNY 72 61 68 VRB6 30.33R BARNWELL CLOUDY 73 63 68 E7 30.32S AIKEN PTSUNNY 72 57 60 E7 30.35S MANNING FAIR 72 59 64 SE5 30.34R COLUMBIA MOSUNNY 70 59 68 SE6 30.32S SUMTER MOSUNNY 71 59 66 SE6 30.32S FLORENCE SUNNY 72 60 66 E9 30.34R MYRTLE BEACH SUNNY 77 57 50 SE13 30.35S N MYRTLE BEACH SUNNY 75 57 53 SE8 30.34R $$ GAZ063-065-086>088-099>101-113>116-118-119-134>141-150-251400- ...SOUTHEAST GEORGIA... CITY SKY/WX TMP DP RH WIND PRES REMARKS SAVANNAH ARPT LGT RAIN 76 68 76 E7 30.29R HUNTER AAF MOSUNNY 77 70 79 E8 30.26R FORT STEWART MOSUNNY 78 70 77 E10 30.25S STATESBORO CLOUDY 75 69 81 E6 30.30R SYLVANIA PTSUNNY 76 68 75 E9 30.31R CLAXTON PTSUNNY 73 70 88 E5 30.29R ...CSRA...CENTRAL AND FAR SOUTHEAST GEORGIA... CITY SKY/WX TMP DP RH WIND PRES REMARKS THOMSON CLOUDY 73 66 80 E5 30.34S AUGUSTA-BUSH CLOUDY 70 62 76 E5 30.30R AUGUSTA-DANIEL CLOUDY 72 60 66 E5 30.31R SWAINSBORO FAIR 77 68 73 E9 30.29S VIDALIA CLOUDY 77 68 73 SE9 30.28R EASTMAN PTSUNNY 76 70 81 E9 30.29R HAZLEHURST PTSUNNY 77 71 81 SE3 30.26R ALMA CLOUDY 75 70 84 E8 30.25S WAYCROSS MOSUNNY 79 74 85 SE9 30.25S JESUP PTSUNNY 81 73 78 SE6 30.27R BAXLEY PTSUNNY 77 72 83 SE7 30.26R BRUNSWICK N/A 75 70 83 SE9 30.28R SAINT SIMONS NOT AVBL $$ SCZ027-028-034-036>038-045-046-048>050-GAZ119-141-251400- ...LAKE AND SUPPLEMENTAL COASTAL OBSERVATIONS... STATION/POSITION TIME TEMP WIND PRES WAVE SWELL AIR SEA DIR/SP/G HT/PER HT/PER/DIR (UTC) (F) (DEG/KT/KT) (MB) (FT/S) (FT/S/D) UPR LAKE MARION NOT AVBL WINYAH BAY 1200 74 120/ 7 1026.0R LAKE MURRAY 1200 66 110/ 4/ 8 1026.1S ACE BASIN NERRS NOT AVBL FORT PULASKI 1300 76 77 100/ 9/ 12 1026.0R SAPELO ISLAND 1300 78 100/ 5 1025.0R $$ ANZ835-935-AMZ111-154-330-350-352-354-370-450-454-472-251400- ...C-MAN AND BUOY OBSERVATIONS... STATION/POSITION TIME TEMP WIND PRES WAVE SWELL AIR SEA DIR/SP/G HT/PER HT/PER/DIR (UTC) (F) (DEG/KT/KT) (MB) (FT/S) (FT/S/D) BUOY 41004 1250 75 75 100/ 12/ 14 1025.9R 5/ 8 3/ 8 BUOY 41008 1250 76 75 110/ 10/ 12 1025.1R 5/ 8 5/100/ 8 FOLLY BEACH CMAN 1300 75 90/ 12/ 15 1026.4R CAPERS NEARSHORE 1208 75 100/ 12/ 16 1026.1R FRIPP NEARSHORE 1200 76 110/ 12/ 14 1024.6R STATION/POSITION TIME TEMP WIND PRES WAVE SWELL AIR SEA DIR/SP/G HT/PER HT/PER/DIR (UTC) (F) (DEG/KT/KT) (MB) (FT/S) (FT/S/D) 5E ST. MARYS GA 1221 77 N/A 4/ 8 FRYING PAN BUOY 1250 75 74 130/ 8/ 10 1028.2R 4/ 6 3/120/ 6 BUOY 41025 1250 73 77 140/ 6/ 8 1028.6R 2/ 8 2/ 50/ 8 CAPE LOOKOUT NC 1300 73 130/ 7/ 8 1027.9R BUOY 41002 1250 73 74 90/ 16/ 17 1027.5R 4/ 5 2/100/12 BUOY 41010 1220 78 80 90/ 10/ 12 1024.0R ST AUGUSTINE FL 1300 77 77 110/ 8/ 9 1024.8R $$

USA.gov is the U.S. government's official web portal to all federal, state and local government web resources and services.